STARLINK-3989 (52630 NORAD) Tracking and Keplerian Element Data

This shows tracking and keplerian element data for the satellite.

Feedback or suggestion? Click here.




ElementValue
Catalog52630
NameSTARLINK-3989
Epoch Orbit130
Epoch Day192.91667824
Epoch Year2022
RAAN153.0509
Inclination53.2176
Eccentricity0.0001165
Argument of Perigee66.487
Mean Anonmoly130.0443
Mean Motion15.4991983
Decay Rate-0.0005637
L11 52630U 22052AJ 22192.91667824 -.00056370 00000+0 -99116-3 0 9997
L22 52630 53.2176 153.0509 0001165 66.4870 130.0443 15.49919830 1307

Live tracking and technical data element details for STARLINK-3989 (NORAD 52630). STARLINK-3989 can be tracked NOW for your location showing map with azimuth and elevation plus other details from your city location.

Track the satellite on the map from your city or location and see movement details for azimuth, elevation, latitude, longitude, range, height, and movement on the map or in text.







IsCatalogInMostPopularTable: catalog: 52630, numindb: 7
Update: records affected: 1



GetName: 52630 STARLINK-3989

Hit Count: updated at: Sun, 14 Aug 2022 00:10:36 GMT